Regional Weather Roundup
Issued by NWS

Home | Current Version | Previous Version | Graphics & Text | Print | Product List | Glossary On
Versions: 1 2 3 4 5 6 7 8 9 10 11 12 13 14 15 16 17 18 19 20 21 22 23 24 25 26 27 28 29 30 31 32 33 34 35 36 37 38 39 40 41 42 43 44 45 46 47 48 49 50
440
ASUS44 KMEG 290610
RWRTN
TENNESSEE HOURLY STATE WEATHER ROUNDUP
NATIONAL WEATHER SERVICE MEMPHIS TN
100 AM CDT THU JUN 29 2017

TNZ002-004-019-021-049-052-054-088>092-290700-
WEST TENNESSEE

CITY           SKY/WX    TMP DP  RH WIND       PRES   REMARKS
MEMPHIS INTL   CLEAR     77  67  71 S12       29.98S
NWS MEMPHIS      N/A     75 N/A N/A MISG        N/A
JACKSON        PTCLDY    74  66  76 S7        30.01R
SOMERVILLE     CLEAR     73  66  78 S7        29.99S
COVINGTON      CLEAR     73  66  78 S5        29.99R
UNION CITY     CLEAR     72  66  83 SE6       29.98S
BOLIVAR        CLEAR     73  66  78 SE5       30.00S
HUNTINGDON     PTCLDY    70  66  88 CALM      30.00S
LEXINGTON      PTCLDY    68  64  88 SE3       30.02S
SELMER         CLEAR     75  66  73 S7        30.02S
SAVANNAH       MOCLDY    75  66  73 S6G13     30.02S
$$

TNZ008-025-027-028-033-062-065-066-290700-
NORTH MIDDLE TENNESSEE

CITY           SKY/WX    TMP DP  RH WIND       PRES   REMARKS
NASHVILLE      CLEAR     72  62  71 SE7       30.06R
PORTLAND       PTCLDY    68  61  77 CALM      30.05S
CLARKSVILLE    CLEAR     71  63  75 S3        30.03S
SMYRNA         CLEAR     68  62  81 CALM      30.07R
COOKEVILLE     CLEAR     70  61  73 S5        30.10R
GALLATIN       PTCLDY    66  63  88 CALM      30.08S
CROSSVILLE     CLEAR     68  58  70 CALM      30.16R
$$

TNZ061-075-076-078-094-096-097-290700-
SOUTH MIDDLE TENNESSEE

CITY           SKY/WX    TMP DP  RH WIND       PRES   REMARKS
FAYETTEVILLE   PTCLDY    72  64  78 S7        30.08S
TULLAHOMA      CLEAR     70  61  73 S6        30.10S
WINCHESTER     CLEAR     73  63  68 S6        30.11R
MCMINNVILLE    CLEAR     73  63  68 CALM      30.10S
COLUMBIA       PTCLDY    70  64  83 CALM      30.04R
SHELBYVILLE    CLEAR     72  63  73 SE7       30.07S
$$

TNZ017-018-042-046-047-290700-
NORTHEAST TENNESSEE

CITY           SKY/WX    TMP DP  RH WIND       PRES   REMARKS
TRI CITIES     MOCLDY    63  57  81 N3        30.17S
ELIZABETHTON   PTCLDY    63  57  82 CALM      30.19S
$$

TNZ012-013-036-069-073-074-290700-
CENTRAL EAST TENNESSEE

CITY           SKY/WX    TMP DP  RH WIND       PRES   REMARKS
KNOXVILLE      PTCLDY    71  58  63 NW3       30.12S
OAK RIDGE      CLEAR     65  58  78 CALM      30.14S
DOWNTOWN KNOXV CLEAR     64  63  94 CALM      30.13R
GATLINBURG     CLEAR     64  55  72 CALM      30.13S
MORRISTOWN     CLEAR     68  61  77 CALM      30.14S
JACKSBORO      CLEAR     61  59  94 CALM      30.17S
$$

TNZ083-085-099-290700-
SOUTHEAST TENNESSEE

CITY           SKY/WX    TMP DP  RH WIND       PRES   REMARKS
CHATTANOOGA    MOCLDY    76  63  64 S3        30.12R
DAYTON         CLOUDY    66  66 100 CALM      30.12R
$$

SKY/WX REPORTED AS FAIR MEANS FEW OR NO CLOUDS BELOW
12 THOUSAND FEET.





USA.gov is the U.S. government's official web portal to all federal, state and local government web resources and services.